星链-1039 (STARLINK-1039 )

导读

STARLINK-1039是美国SpaceX公司星链星座中的一员,于2019年11月11日发射升空。星链计划是全球规模最大的低轨卫星互联网项目,旨在为全球提供高速低延迟宽带服务。该卫星运行在近地轨道,属于星链第一代卫星,支撑星座初期组网,助力实现全球范围互联网覆盖,尤其服务偏远地区及特殊场景联网需求,推动了卫星互联网商业化发展。

Basic Information
目录编号:
44744
目录名称:
STARLINK-1039
国际标识:
2019-074AH
轨道中心:
EARTH
卫星名称:
星链-1039
卫星全名:
星链-1039 (STARLINK-1039 )
卫星状态:
在轨 (已飞行2497 天)
发射日期:
2019-11-11 UTC
国别 :
美国 (US)
星等 :
--
This satellite is enrolled in the Space Conjunction Data Service (SCDS) and the current flight risk assessment level is: No High Risk
Orbit Information
数据来源 国际轨道数据
星历时间: 2026-09-12T02:00:20+0800
17小时前
查看轨道信息
半长轴: 6839.732km
偏心率: 0.0002098
轨道倾角: 53.057°
近地点辐角 78.876°
升交点赤经 70.830°
平近点角 281.248°
近地点: 460.16km
远地点: 463.03km
周期: 93.825分钟
每日圈数: 15.347731
Detailed Information
固有亮度:
5
最大亮度:
2.5
卫星平台:
Starlink V1.0
覆盖范围:
全球
运营商:
太空探索技术公司
运营商所在国:
美国
制造商(研发单位):
太空探索技术公司
制造商所在国:
美国
使用方式:
暂无
Satellite Introduction
星链(Starlink)计划是由太空探索技术公司(SpaceX)提出的一个巨型低轨卫星互联网星座项目,计划在2019年至2024年间在太空搭建由约1.2万颗卫星组成的“星链”网络,其中1584颗将部署在地球上空550千米处的近地轨道,并从2020年开始工作。该卫星仍在工作。
2D Orbit Map
3D Orbit Map
Orbit Altitude Analysis Chart
Orbit Inclination Analysis Chart
Orbit Comprehensive Analysis Chart
View Comprehensive Chart
Conjunction Data List
Event ID Objects TCA Miss Dist (km) Collision Risk Probability Collision Risk Index (CRI) Action
CDM_260913-212204-474406-243921
2026-09-13T
21:22:49+0000
0.279 km
中距离
4.856285E-4 高风险 0.89
CDM_260913-181504-474406-460021
2026-09-13T
18:15:34+0000
0.665 km
远距离
7.924751E-5 中风险 0.73
CDM_260910-150404-474406-476721
2026-09-10T
15:04:29+0000
0.702 km
远距离
2.64089E-5 中风险 0.63
CDM_260914-064604-474406-833821
2026-09-14T
06:46:33+0000
1.110 km
极远距离
1.516177E-5 中风险 0.59
CDM_260914-143304-474406-243721
2026-09-14T
14:33:50+0000
1.126 km
极远距离
1.392566E-5 中风险 0.58
CDM_260908-184604-474405-478522
2026-09-08T
18:46:59+0000
1.266 km
极远距离
1.018556E-5 中风险 0.55
CDM_260914-175004-474406-689321
2026-09-14T
17:50:49+0000
1.288 km
极远距离
9.793091E-6 低风险 0.55
CDM_260913-023104-474406-594622
OBJECT B (65946)
2026-09-13T
02:31:38+0000
1.131 km
极远距离
9.752729E-6 低风险 0.55
CDM_260912-110704-474405-189523
2026-09-12T
11:07:09+0000
1.362 km
极远距离
8.024001E-6 低风险 0.53
CDM_260914-051904-474405-418521
2026-09-14T
05:19:56+0000
1.623 km
极远距离
4.554139E-6 低风险 0.48
Miss Distance Evolution Trend with All Objects
Collision Probability Evolution Trend with All Objects